When you browse on this site, cookies collect data to enhance your experience and personalize the content and advertising you see.
Visit our Privacy Policy to learn more. By continuing to use the site, you agree to this use of cookies and data.
  • In Romania
  • List of Countries
  • For 7 days
  • Water Temperature
  • Weather Map
  • Weather Widgets
  • user-avatar
    Login

    Hourly Weather Genova

    Today, 14 November, Thursday

    Time Temperature Precipitation Wind Pressure Humidity
    00:00 +7°C° 0 mm 1 mps 741 mmHg 69%
    01:00 +7°C° 0 mm 1 mps 741 mmHg 74%
    02:00 +7°C° 0 mm 1 mps 741 mmHg 76%
    03:00 +6°C° 0 mm 2 mps 741 mmHg 78%
    04:00 +6°C° 0 mm 2 mps 741 mmHg 81%
    05:00 +6°C° 0.1 mm 2 mps 742 mmHg 80%
    06:00 +6°C° 0.1 mm 2 mps 742 mmHg 80%
    07:00 +6°C° 0.1 mm 2 mps 742 mmHg 79%
    08:00 +5°C° 0.2 mm 3 mps 742 mmHg 80%
    09:00 +7°C° 0.2 mm 3 mps 743 mmHg 81%
    10:00 +7°C° 0.2 mm 3 mps 743 mmHg 82%
    11:00 +7°C° 0.1 mm 3 mps 742 mmHg 82%
    12:00 +7°C° 0.1 mm 3 mps 742 mmHg 82%
    13:00 +8°C° 0.1 mm 3 mps 742 mmHg 82%
    14:00 +7°C° 0 mm 3 mps 741 mmHg 85%
    15:00 +7°C° 0 mm 3 mps 740 mmHg 87%
    16:00 +7°C° 0 mm 3 mps 740 mmHg 89%
    17:00 +6°C° 0.4 mm 4 mps 739 mmHg 90%
    18:00 +6°C° 0.4 mm 5 mps 739 mmHg 91%
    19:00 +6°C° 0.4 mm 5 mps 738 mmHg 92%
    20:00 +5°C° 3 mm 6 mps 738 mmHg 94%
    21:00 +6°C° 3 mm 7 mps 737 mmHg 96%
    22:00 +7°C° 3 mm 9 mps 737 mmHg 97%
    23:00 +7°C° 7.5 mm 8 mps 737 mmHg 98%

    Tomorrow, 15 November, Friday

    Time Temperature Precipitation Wind Pressure Humidity
    00:00 +8°C° 7.5 mm 7 mps 736 mmHg 98%
    01:00 +8°C° 7.5 mm 7 mps 736 mmHg 98%
    02:00 +7°C° 2.1 mm 5 mps 736 mmHg 98%
    03:00 +7°C° 2.1 mm 4 mps 736 mmHg 97%
    04:00 +8°C° 2.1 mm 3 mps 736 mmHg 97%
    05:00 +8°C° 0.2 mm 3 mps 737 mmHg 96%
    06:00 +7°C° 0.2 mm 2 mps 737 mmHg 95%
    07:00 +7°C° 0.2 mm 2 mps 737 mmHg 95%
    08:00 +7°C° 0.3 mm 2 mps 737 mmHg 94%
    09:00 +8°C° 0.3 mm 1 mps 738 mmHg 93%
    10:00 +9°C° 0.3 mm 1 mps 738 mmHg 92%
    11:00 +9°C° 0.2 mm 1 mps 738 mmHg 90%
    12:00 +10°C° 0.2 mm 1 mps 738 mmHg 88%
    13:00 +10°C° 0.2 mm 1 mps 738 mmHg 86%
    14:00 +10°C° 0.1 mm 1 mps 738 mmHg 87%
    15:00 +9°C° 0.1 mm 2 mps 738 mmHg 89%
    16:00 +9°C° 0.1 mm 2 mps 738 mmHg 90%
    17:00 +8°C° 1.2 mm 2 mps 739 mmHg 92%
    18:00 +8°C° 1.2 mm 2 mps 739 mmHg 94%
    19:00 +7°C° 1.2 mm 2 mps 740 mmHg 96%
    20:00 +7°C° 1.9 mm 2 mps 740 mmHg 96%
    21:00 +7°C° 1.9 mm 2 mps 741 mmHg 97%
    22:00 +7°C° 1.9 mm 2 mps 741 mmHg 97%
    23:00 +7°C° 0.8 mm 2 mps 742 mmHg 97%

    Day after tomorrow, 16 November, Saturday

    Time Temperature Precipitation Wind Pressure Humidity
    00:00 +7°C° 0.8 mm 2 mps 742 mmHg 97%
    01:00 +7°C° 0.8 mm 2 mps 743 mmHg 97%
    02:00 +8°C° 0.1 mm 1 mps 743 mmHg 97%
    03:00 +8°C° 0.1 mm 1 mps 743 mmHg 97%
    04:00 +7°C° 0.1 mm 1 mps 743 mmHg 97%
    05:00 +7°C° 0.1 mm 1 mps 744 mmHg 96%
    06:00 +7°C° 0.1 mm 1 mps 744 mmHg 95%
    07:00 +7°C° 0.1 mm 1 mps 744 mmHg 94%
    08:00 +7°C° 0 mm 2 mps 745 mmHg 92%
    09:00 +8°C° 0 mm 2 mps 745 mmHg 90%
    10:00 +9°C° 0 mm 2 mps 746 mmHg 88%
    11:00 +9°C° 0 mm 2 mps 746 mmHg 88%
    12:00 +9°C° 0 mm 3 mps 746 mmHg 88%
    13:00 +9°C° 0 mm 3 mps 745 mmHg 87%
    14:00 +8°C° 0 mm 4 mps 745 mmHg 88%
    15:00 +7°C° 0 mm 4 mps 745 mmHg 90%
    16:00 +7°C° 0 mm 5 mps 744 mmHg 91%
    17:00 +7°C° 0 mm 5 mps 744 mmHg 91%
    18:00 +7°C° 0 mm 5 mps 744 mmHg 92%
    19:00 +7°C° 0 mm 4 mps 744 mmHg 93%
    20:00 +7°C° 0.5 mm 5 mps 744 mmHg 93%
    21:00 +7°C° 0.5 mm 6 mps 743 mmHg 94%
    22:00 +5°C° 0.5 mm 6 mps 743 mmHg 94%
    23:00 +5°C° 2.1 mm 7 mps 742 mmHg 93%

    17 November, Sunday

    Time Temperature Precipitation Wind Pressure Humidity
    00:00 +5°C° 2.1 mm 7 mps 741 mmHg 93%
    01:00 +5°C° 2.1 mm 8 mps 741 mmHg 92%
    02:00 +4°C° 4.8 mm 8 mps 740 mmHg 93%
    03:00 +4°C° 4.8 mm 8 mps 738 mmHg 94%
    04:00 +4°C° 4.8 mm 8 mps 737 mmHg 95%
    05:00 +4°C° 2.7 mm 8 mps 737 mmHg 95%
    06:00 +4°C° 2.7 mm 7 mps 736 mmHg 95%
    07:00 +4°C° 2.7 mm 6 mps 736 mmHg 95%
    08:00 +4°C° 2.6 mm 6 mps 736 mmHg 95%
    09:00 +3°C° 2.6 mm 6 mps 735 mmHg 96%
    10:00 +3°C° 2.6 mm 5 mps 735 mmHg 96%
    11:00 +5°C° 1.6 mm 5 mps 735 mmHg 97%
    12:00 +4°C° 1.6 mm 6 mps 736 mmHg 97%
    13:00 +5°C° 1.6 mm 6 mps 736 mmHg 98%
    14:00 +6°C° 2.8 mm 5 mps 736 mmHg 98%
    15:00 +6°C° 2.8 mm 4 mps 736 mmHg 98%
    16:00 +8°C° 2.8 mm 3 mps 737 mmHg 98%
    17:00 +7°C° 2.5 mm 3 mps 737 mmHg 98%
    18:00 +7°C° 2.5 mm 3 mps 737 mmHg 98%
    19:00 +7°C° 2.5 mm 2 mps 738 mmHg 98%
    20:00 +7°C° 0.8 mm 2 mps 738 mmHg 97%
    21:00 +7°C° 0.8 mm 2 mps 738 mmHg 96%
    22:00 +7°C° 0.8 mm 2 mps 738 mmHg 95%
    23:00 +7°C° 0.5 mm 2 mps 738 mmHg 96%

    18 November, Monday

    Time Temperature Precipitation Wind Pressure Humidity
    00:00 +7°C° 0.5 mm 2 mps 738 mmHg 96%
    01:00 +7°C° 0.5 mm 2 mps 738 mmHg 96%
    02:00 +7°C° 1.9 mm 2 mps 738 mmHg 97%
    03:00 +7°C° 1.9 mm 3 mps 738 mmHg 97%
    04:00 +7°C° 1.9 mm 3 mps 738 mmHg 97%
    05:00 +7°C° 0.6 mm 2 mps 739 mmHg 97%
    06:00 +7°C° 0.6 mm 2 mps 739 mmHg 97%
    07:00 +7°C° 0.6 mm 2 mps 739 mmHg 97%
    08:00 +7°C° 0.2 mm 2 mps 740 mmHg 97%
    09:00 +8°C° 0.2 mm 2 mps 740 mmHg 97%
    10:00 +8°C° 0.2 mm 2 mps 741 mmHg 97%
    11:00 +9°C° 0.2 mm 1 mps 741 mmHg 96%
    12:00 +10°C° 0.2 mm 1 mps 741 mmHg 95%
    13:00 +10°C° 0.2 mm 1 mps 741 mmHg 94%
    14:00 +10°C° 0.6 mm 1 mps 741 mmHg 95%
    15:00 +10°C° 0.6 mm 1 mps 742 mmHg 96%
    16:00 +9°C° 0.6 mm 2 mps 742 mmHg 97%
    17:00 +9°C° 0.8 mm 2 mps 742 mmHg 96%
    18:00 +8°C° 0.8 mm 2 mps 743 mmHg 96%
    19:00 +8°C° 0.8 mm 2 mps 743 mmHg 96%
    20:00 +8°C° 0.3 mm 2 mps 744 mmHg 96%
    21:00 +8°C° 0.3 mm 2 mps 744 mmHg 95%
    22:00 +8°C° 0.3 mm 2 mps 745 mmHg 95%
    23:00 +8°C° 0.1 mm 2 mps 745 mmHg 95%

    19 November, Tuesday

    Time Temperature Precipitation Wind Pressure Humidity
    00:00 +7°C° 0.1 mm 2 mps 745 mmHg 94%
    01:00 +8°C° 0.1 mm 1 mps 745 mmHg 94%
    02:00 +8°C° 0.1 mm 1 mps 745 mmHg 94%
    03:00 +8°C° 0.1 mm 1 mps 745 mmHg 94%
    04:00 +7°C° 0.1 mm 1 mps 745 mmHg 94%
    05:00 +6°C° 0 mm 2 mps 746 mmHg 94%
    06:00 +6°C° 0 mm 2 mps 746 mmHg 93%
    07:00 +6°C° 0 mm 2 mps 746 mmHg 93%
    08:00 +7°C° 0 mm 2 mps 747 mmHg 93%
    09:00 +8°C° 0 mm 2 mps 747 mmHg 92%
    10:00 +9°C° 0 mm 2 mps 747 mmHg 91%
    11:00 +9°C° 0 mm 2 mps 747 mmHg 90%
    12:00 +9°C° 0 mm 2 mps 747 mmHg 88%
    13:00 +10°C° 0 mm 2 mps 747 mmHg 87%
    14:00 +9°C° 0 mm 2 mps 747 mmHg 88%
    15:00 +9°C° 0 mm 2 mps 747 mmHg 90%
    16:00 +8°C° 0 mm 2 mps 747 mmHg 91%
    17:00 +8°C° 0 mm 2 mps 748 mmHg 92%
    18:00 +7°C° 0 mm 2 mps 748 mmHg 93%
    19:00 +6°C° 0 mm 2 mps 748 mmHg 94%
    20:00 +6°C° 0 mm 2 mps 749 mmHg 93%
    21:00 +6°C° 0 mm 2 mps 749 mmHg 93%
    22:00 +7°C° 0 mm 1 mps 749 mmHg 92%
    23:00 +7°C° 0 mm 1 mps 749 mmHg 92%
    Show more